www.pogodaiklimat.ru

Погода и климат >> Архив погоды >> Финляндия >> Эмасало


ПОГОДА на Эмасало

  • Прогноз погоды на Эмасало
  • Монитор погоды на Эмасало

АРХИВ ПОГОДЫ на Эмасало

Время (UTC), дата Ветер
(напр.,м/с)
 
Видим.   Явления Облачность Т
(С)
Тd
(С)
f
(%)
Тe
(С)
Тes
(С)
Комфортность P
(гПа)
Po
(гПа)
Тmin
(С)
Tmax
(С)
R
(мм)
R24
(мм)
S
(см)
01 9.06 Ю 9 н/о н/о +16.5 +15.9 96 +15 +15 1015.9 1012.8
02 9.06 ЮЗ 7-8
{10}
н/о н/о +16.8 +16.1 96 +16 +16 1015.8 1012.7
03 9.06 ЮЗ 10-11
{11}
н/о н/о +16.7 +15.9 95 +15 +15 1015.8 1012.7
04 9.06 ЮЗ 11 н/о н/о +15.8 +15.6 99 +13 +13 1016.7 1013.5
05 9.06 ЮЗ 9-11
{11}
н/о н/о +15.0 +14.9 99 +13 +13 1017.0 1013.8
06 9.06 ЮЗ 9-12
{12}
н/о н/о +15.3 +15.2 99 +13 +13 1017.6 1014.3 +14.9 +20.9
07 9.06 ЮЗ 10 н/о н/о +15.7 +15.0 96 +13 +13 1018.0 1014.8
08 9.06 ЮЗ 11-11
{13}
н/о н/о +15.4 +14.6 95 +13 +13 1018.7 1015.5
09 9.06 ЮЗ 12-13
{14}
н/о н/о +15.6 +14.4 93 +13 +13 1019.4 1016.2
10 9.06 ЮЗ 15 н/о н/о +15.9 +14.0 88 +13 +13 1019.7 1016.5
11 9.06 ЮЗ 14-16
{16}
н/о н/о +16.3 +13.5 83 +14 +14 1020.0 1016.8
12 9.06 ЮЗ 15-17
{17}
н/о н/о +15.7 +12.0 79 +13 +13 1019.9 1016.7
13 9.06 ЮЗ 16 н/о н/о +15.5 +11.5 77 +13 +13 1020.2 1017.0
14 9.06 ЮЗ 13-15
{18}
н/о н/о +15.5 +11.5 77 +13 +13 1020.4 1017.2
15 9.06 ЮЗ 14-16
{16}
н/о н/о +15.2 +11.3 78 +12 +12 1020.5 1017.3
16 9.06 ЮЗ 13 н/о н/о +16.9 +9.9 63 +15 +15 1020.9 1017.7
17 9.06 ЮЗ 8 н/о н/о +15.8 +11.6 76 +14 +14 1020.8 1017.6
18 9.06 З 9-11
{11}
н/о н/о +16.8 +10.4 66 +15 +15 1020.4 1017.2 +14.8 +17.2
19 9.06 ЮЗ 8-11
{12}
н/о н/о +15.2 +11.0 76 +13 +13 1020.5 1017.3
20 9.06 З 11 н/о н/о +14.9 +10.9 77 +12 +12 1020.6 1017.3
21 9.06 ЮЗ 11-12
{15}
н/о н/о +14.5 +11.3 81 +12 +12 1020.7 1017.5
22 9.06 ЮЗ 11-13
{13}
н/о н/о +14.1 +11.3 83 +11 +11 1020.6 1017.4
23 9.06 ЮЗ 10-12
{13}
н/о н/о +13.7 +11.1 84 +11 +11 1020.5 1017.3
00 10.06 ЮЗ 9-10
{12}
н/о н/о +13.1 +10.6 85 +10 +10 1020.3 1017.0
01 10.06 ЮЗ 9 н/о н/о +12.9 +10.6 86 +10 +10 1020.0 1016.8
02 10.06 ЮЗ 11 н/о н/о +12.9 +11.3 90 +9 +9 1019.8 1016.6
03 10.06 ЮЗ 12-14
{14}
н/о н/о +13.3 +12.1 92 +10 +10 1019.9 1016.7
04 10.06 ЮЗ 12-13
{14}
н/о н/о +13.4 +12.1 92 +10 +10 1020.1 1016.9
05 10.06 ЮЗ 12 н/о н/о +13.1 +11.2 88 +9 +9 1020.0 1016.8
06 10.06 ЮЗ 12-13
{14}
н/о н/о +13.5 +10.8 84 +10 +10 1020.3 1017.0 +12.6 +16.9
07 10.06 ЮЗ 11-14
{14}
н/о н/о +14.0 +10.8 81 +11 +11 1020.6 1017.4
08 10.06 ЮЗ 13 н/о н/о +14.2 +10.7 79 +11 +11 1020.6 1017.4
09 10.06 ЮЗ 14-16
{17}
н/о н/о +14.7 +10.6 76 +12 +12 1020.9 1017.6
10 10.06 ЮЗ 14 н/о н/о +14.5 +10.6 77 +11 +11 1021.3 1018.1
11 10.06 ЮЗ 15 н/о н/о +15.2 +10.4 73 +12 +12 1021.2 1018.0
12 10.06 ЮЗ 13-15
{17}
н/о н/о +15.3 +10.3 72 +13 +13 1021.3 1018.1
13 10.06 ЮЗ 14-16
{16}
н/о н/о +15.2 +10.0 71 +12 +12 1021.0 1017.8
14 10.06 ЮЗ 14-16
{16}
н/о н/о +16.1 +9.1 63 +14 +14 1020.6 1017.4
15 10.06 ЮЗ 12-14
{16}
н/о н/о +15.9 +8.7 62 +14 +14 1020.6 1017.4
16 10.06 ЮЗ 13-14
{14}
н/о н/о +16.2 +8.6 61 +14 +14 1020.3 1017.2
17 10.06 ЮЗ 11 н/о н/о +14.7 +9.1 69 +12 +12 1020.3 1017.1
18 10.06 ЮЗ 11-12
{13}
н/о н/о +13.7 +10.0 78 +11 +11 1020.3 1017.0 +13.5 +16.3
19 10.06 З 9 н/о н/о +14.5 +10.3 76 +12 +12 1020.4 1017.2
20 10.06 З 8 н/о н/о +14.8 +9.7 71 +13 +13 1020.6 1017.4
21 10.06 ЮЗ 5-7
{9}
н/о н/о +12.8 +10.4 85 +11 +11 1020.6 1017.4
22 10.06 З 6-7
{7}
н/о н/о +13.4 +10.6 83 +11 +11 1021.0 1017.8
23 10.06 З 5 н/о н/о +13.4 +10.5 83 +11 +11 1021.7 1018.5
00 11.06 ЮЗ 6-7
{7}
н/о н/о +12.3 +11.1 92 +10 +10 1022.0 1018.8
01 11.06 З 4-4
{6}
н/о н/о +12.4 +10.9 91 +10 +10 1021.8 1018.6
02 11.06 ЮЗ 3-4
{4}
н/о н/о +12.5 +10.9 90 +11 +11 1022.0 1018.8
03 11.06 З 4-5
{5}
н/о н/о +13.1 +10.6 85 +11 +11 1022.2 1018.9
04 11.06 З 4 н/о н/о +13.8 +10.8 82 +12 +12 1022.3 1019.0
05 11.06 З 4-4
{4}
н/о н/о +14.2 +11.1 82 +13 +13 1022.5 1019.3
06 11.06 ЮЗ 6-6
{8}
н/о н/о +14.1 +11.5 84 +12 +12 1022.9 1019.7 +12.2 +15.1
07 11.06 ЮЗ 5 н/о н/о +14.7 +11.5 81 +13 +13 1023.0 1019.8
08 11.06 ЮЗ 5 н/о н/о +16.7 +11.8 73 +16 +16 1023.1 1019.9
09 11.06 ЮЗ 3-4
{7}
н/о н/о +15.3 +11.3 77 +15 +15 1023.3 1020.1
10 11.06 ЮЗ 5-6
{6}
н/о н/о +16.1 +10.9 71 +15 +15 1023.2 1020.0
11 11.06 ЮЗ 3 н/о н/о +17.5 +8.8 57 +18 +18 1022.9 1019.8
12 11.06 Ю 4-5
{5}
н/о н/о +17.3 +12.2 72 +17 +17 1022.9 1019.7
13 11.06 Ю 4 н/о н/о +16.9 +10.1 64 +16 +16 1022.7 1019.5
14 11.06 Ю 3-4
{4}
н/о н/о +17.4 +12.3 72 +17 +17 1022.6 1019.4
15 11.06 Ю 5-5
{5}
н/о н/о +17.4 +12.6 73 +17 +17 1022.1 1019.0
16 11.06 Ю 3 н/о н/о +16.1 +11.9 76 +16 +16 1021.9 1018.7
17 11.06 Ю 1 н/о н/о +16.1 +10.2 68 +17 +17 1021.4 1018.2
18 11.06 Ю 1-2
{2}
н/о н/о +16.5 +10.0 65 +17 +17 1021.4 1018.2 +14.0 +18.3
19 11.06 З 1-2
{2}
н/о н/о +15.6 +9.8 68 +16 +16 1021.6 1018.4
20 11.06 СЗ 2 н/о н/о +14.9 +9.7 71 +15 +15 1021.5 1018.3
21 11.06 С 4-5
{5}
н/о н/о +15.2 +9.3 68 +14 +14 1021.9 1018.7
22 11.06 СВ 7-10
{10}
н/о н/о +16.1 +10.1 68 +15 +15 1021.8 1018.6
23 11.06 СВ 6-9
{12}
н/о н/о +16.0 +8.7 62 +15 +15 1022.3 1019.1
00 12.06 СВ 8-11
{12}
н/о н/о +14.7 +6.5 58 +13 +13 1023.1 1019.9
01 12.06 СВ 7 н/о н/о +13.9 +5.6 57 +12 +12 1023.3 1020.1
02 12.06 СВ 7 н/о н/о +12.9 +5.1 59 +10 +10 1023.5 1020.2
03 12.06 СВ 6-9
{10}
н/о н/о +12.9 +5.6 61 +11 +11 1023.8 1020.6
04 12.06 СВ 6 н/о н/о +13.4 +5.8 60 +11 +11 1024.1 1020.8
05 12.06 СВ 6 н/о н/о +13.4 +6.5 63 +11 +11 1024.5 1021.2
06 12.06 СВ 6-10
{10}
н/о н/о +14.7 +6.5 58 +13 +13 1024.8 1021.6 +12.5 +16.5
07 12.06 СВ 7 н/о н/о +16.0 +6.1 52 +15 +15 1024.5 1021.3
08 12.06 В 8-11
{12}
н/о н/о +16.3 +6.9 54 +15 +15 1025.1 1021.9
09 12.06 В 9-12
{13}
н/о н/о +16.1 +4.9 47 +14 +14 1025.5 1022.3
10 12.06 В 10 н/о н/о +15.6 +7.3 58 +14 +14 1025.5 1022.3
11 12.06 В 9 н/о н/о +16.2 +7.7 57 +15 +15 1025.6 1022.4
12 12.06 В 9-12
{12}
н/о н/о +15.7 +7.5 58 +14 +14 1025.7 1022.5
13 12.06 В 11-13
{13}
н/о н/о +14.9 +7.6 62 +12 +12 1025.4 1022.2
14 12.06 В 12 н/о н/о +14.4 +7.3 62 +12 +12 1025.3 1022.1
15 12.06 В 13-15
{15}
н/о н/о +14.4 +6.3 58 +11 +11 1024.9 1021.7
16 12.06 В 14-16
{16}
н/о н/о +14.1 +5.5 56 +11 +11 1024.6 1021.3
17 12.06 В 12-14
{16}
н/о н/о +13.6 +7.4 66 +10 +10 1024.9 1021.6
18 12.06 В 11-13
{14}
н/о н/о +13.1 +8.8 75 +10 +10 1024.9 1021.6 +13.1 +17.0
19 12.06 В 12 н/о н/о +13.0 +8.1 72 +9 +9 1024.7 1021.5
20 12.06 В 13-15
{15}
н/о н/о +13.0 +6.6 65 +9 +9 1024.9 1021.6
21 12.06 В 12-15
{16}
н/о н/о +12.7 +5.1 60 +9 +9 1025.1 1021.8
22 12.06 В 11 н/о н/о +12.4 +5.2 61 +9 +9 1025.1 1021.8
23 12.06 В 11 н/о н/о +12.3 +6.3 67 +9 +9 1024.6 1021.3
00 13.06 В 11-14
{15}
н/о н/о +12.1 +7.1 71 +8 +8 1024.2 1021.0
01 13.06 В 13-16
{16}
н/о н/о +12.2 +8.3 77 +8 +8 1023.7 1020.5
02 13.06 В 13-15
{16}
н/о н/о +12.1 +7.5 73 +8 +8 1023.3 1020.0
03 13.06 В 13-15
{15}
н/о н/о +12.0 +7.6 74 +8 +8 1022.7 1019.5
04 13.06 В 13 н/о н/о +12.2 +7.4 72 +8 +8 1023.2 1019.9
05 13.06 В 15-19
{19}
н/о н/о +12.1 +7.3 72 +8 +8 1021.8 1018.5
06 13.06 В 15-18
{22}
н/о н/о +12.1 +7.8 75 +8 +8 1020.6 1017.3 +11.8 +13.1
07 13.06 В 12-16
{17}
н/о н/о +12.2 +7.9 75 +8 +8 1021.0 1017.8
08 13.06 В 11-14
{16}
н/о н/о +12.2 +8.4 78 +8 +8 1022.1 1018.9
09 13.06 В 12-15
{16}
н/о н/о +14.5 +9.2 70 +12 +12 1020.8 1017.6
10 13.06 В 14 н/о н/о +15.1 +9.3 68 +12 +12 1020.6 1017.4
11 13.06 В 15 н/о н/о +14.0 +9.9 76 +10 +10 1020.6 1017.4
12 13.06 В 16-18
{20}
н/о н/о +13.1 +10.7 85 +9 +9 1020.0 1016.8
13 13.06 В 12 н/о н/о +12.7 +11.4 92 +9 +9 1019.8 1016.6
14 13.06 В 15-19
{19}
н/о н/о +13.8 +11.0 83 +10 +10 1018.3 1015.1
15 13.06 В 13-16
{17}
н/о н/о +14.1 +11.0 82 +11 +11 1018.3 1015.1
16 13.06 В 11 н/о н/о +14.8 +11.0 78 +12 +12 1017.9 1014.7
17 13.06 В 11-15
{15}
н/о н/о +14.5 +11.0 80 +12 +12 1017.1 1013.8
18 13.06 В 15-17
{18}
н/о н/о +14.5 +11.3 81 +11 +11 1016.3 1013.1 +12.0 +15.5
19 13.06 В 13 н/о н/о +13.9 +11.5 85 +11 +11 1015.9 1012.6
20 13.06 В 11 н/о н/о +13.4 +11.9 91 +10 +10 1015.8 1012.5
21 13.06 В 6-8
{16}
н/о н/о +13.5 +12.2 92 +11 +11 1016.2 1013.0
22 13.06 В 7 н/о н/о +13.3 +12.1 92 +11 +11 1015.9 1012.7
23 13.06 В 6-7
{7}
н/о н/о +13.7 +12.6 93 +11 +11 1015.4 1012.2
00 14.06 В 5-6
{7}
н/о н/о +14.0 +12.8 92 +12 +12 1015.0 1011.8
01 14.06 В 5 н/о н/о +13.5 +12.5 94 +11 +11 1015.1 1011.8
02 14.06 В 5 н/о н/о +13.7 +12.6 93 +12 +12 1014.9 1011.7
03 14.06 СВ 4-5
{5}
н/о н/о +13.8 +12.9 94 +12 +12 1014.9 1011.7
04 14.06 В 5 н/о н/о +13.7 +13.1 96 +12 +12 1014.7 1011.5
05 14.06 В 4-5
{6}
н/о н/о +13.9 +13.3 96 +12 +12 1015.0 1011.8
06 14.06 СВ 4-6
{6}
н/о н/о +14.7 +13.3 91 +13 +13 1015.0 1011.8 +13.1 +14.7
07 14.06 СВ 5-8
{8}
н/о н/о +13.7 +12.9 95 +12 +12 1015.5 1012.2
08 14.06 В 6 н/о н/о +14.1 +12.1 88 +12 +12 1015.9 1012.7
09 14.06 В 7-8
{10}
н/о н/о +14.1 +12.4 89 +12 +12 1016.5 1013.2
10 14.06 В 6 н/о н/о +13.8 +12.3 91 +12 +12 1016.8 1013.6
11 14.06 В 7 н/о н/о +13.2 +12.4 95 +10 +10 1017.1 1013.8
12 14.06 В 5-5
{9}
н/о н/о +12.5 +12.3 99 +10 +10 1017.1 1013.9
13 14.06 В 3-3
{5}
н/о н/о +13.0 +12.8 99 +11 +11 1017.0 1013.8
14 14.06 ЮЗ 5 н/о н/о +12.6 +12.4 99 +10 +10 1017.1 1013.9
15 14.06 ЮЗ 5-6
{9}
н/о н/о +12.4 +12.0 97 +10 +10 1016.6 1013.4
16 14.06 ЮЗ 7 н/о н/о +12.1 +11.8 98 +9 +9 1016.2 1013.0
17 14.06 ЮЗ 6 н/о н/о +11.9 +11.9 100 +9 +9 1015.9 1012.7
18 14.06 З 7-8
{8}
н/о н/о +12.5 +12.5 100 +9 +9 1015.8 1012.6 +11.8 +14.7
19 14.06 З 5 н/о н/о +12.4 +12.4 100 +10 +10 1016.0 1012.8
20 14.06 ЮЗ 6 н/о н/о +12.2 +12.2 100 +9 +9 1016.2 1013.0
21 14.06 З 6-7
{8}
н/о н/о +12.7 +12.7 100 +10 +10 1016.3 1013.1
22 14.06 З 9-9
{11}
н/о н/о +13.8 +13.5 98 +11 +11 1016.3 1013.1
23 14.06 ЮЗ 8 н/о н/о +12.6 +12.2 97 +9 +9 1016.1 1012.9
00 15.06 З 8-10
{12}
н/о н/о +13.4 +12.4 94 +11 +11 1015.9 1012.7
01 15.06 З 10 н/о н/о +13.5 +11.5 88 +10 +10 1016.1 1012.9
02 15.06 З 9-10
{13}
н/о н/о +13.3 +11.3 88 +10 +10 1016.1 1012.8
03 15.06 З 9-11
{12}
н/о н/о +13.1 +11.0 87 +10 +10 1016.5 1013.3
04 15.06 З 8 н/о н/о +13.2 +11.1 87 +10 +10 1016.4 1013.1
05 15.06 З 6 н/о н/о +13.3 +11.3 88 +11 +11 1016.5 1013.2
06 15.06 З 6-7
{9}
н/о н/о +13.9 +11.6 86 +12 +12 1016.6 1013.4 +12.1 +13.9
07 15.06 З 5 н/о н/о +14.2 +11.6 84 +12 +12 1016.4 1013.2
08 15.06 З 4 н/о н/о +15.6 +12.2 80 +15 +15 1016.6 1013.5
09 15.06 ЮЗ 9-10
{11}
н/о н/о +13.9 +12.0 88 +11 +11 1016.9 1013.7
10 15.06 ЮЗ 11-12
{12}
н/о н/о +12.8 +11.7 93 +9 +9 1017.0 1013.8
11 15.06 ЮЗ 9 н/о н/о +13.1 +11.8 92 +10 +10 1017.1 1013.8
12 15.06 ЮЗ 9-9
{11}
н/о н/о +14.4 +11.9 85 +12 +12 1016.6 1013.4
13 15.06 ЮЗ 8 н/о н/о +14.4 +11.8 84 +12 +12 1016.5 1013.3
14 15.06 ЮЗ 9-9
{12}
н/о н/о +14.3 +11.6 84 +12 +12 1016.3 1013.1
15 15.06 ЮЗ 7-8
{10}
н/о н/о +15.0 +12.2 83 +13 +13 1016.1 1012.9
16 15.06 ЮЗ 3 н/о н/о +14.8 +12.4 86 +14 +14 1016.0 1012.8
17 15.06 З 2 н/о н/о +15.5 +13.0 85 +15 +15 1015.8 1012.6
18 15.06 З 3-5
{8}
н/о н/о +17.0 +13.6 80 +17 +17 1015.6 1012.4 +12.7 +17.0
19 15.06 В 1 н/о н/о +15.8 +13.5 86 +16 +16 1015.9 1012.8
20 15.06 В 3 н/о н/о +15.1 +13.1 88 +14 +14 1016.4 1013.2
21 15.06 В 3-3
{4}
н/о н/о +14.4 +12.6 89 +13 +13 1016.3 1013.1
22 15.06 СВ 4 н/о н/о +14.2 +12.6 90 +13 +13 1016.1 1012.9
23 15.06 СВ 2-3
{4}
н/о н/о +13.3 +11.8 91 +13 +13 1016.2 1013.0
00 16.06 СВ 2-3
{4}
н/о н/о +13.8 +11.0 83 +13 +13 1016.4 1013.1

 

Местоположение метеостанции Эмасало (Финляндия): широта 60.20 долгота 25.63 высота над уровнем моря 20 м.

В архиве по умолчанию представлена погода на Эмасало за последнюю неделю. Архивные данные за месяц целиком и за предыдущие месяцы, начиная с января 2011 года, Вы можете получить, выбрав интересующий диапазон дат из раскрывающегося списка и нажав кнопку "Ввод!".


*Определитесь, кто Вы:
робот инопланетянин человек

Внимание! Время в таблицах - всемирное. Для получения местного времени необходимо прибавить поправку, которая равна 1 ч.

Смотрите также архив погоды в соседних городах и на ближайших метеорологических станциях:

Погода в Килпилахти (Финляндия) (12 км)
Погода в Порвоо (Финляндия) (21 км)
Погода на Маяке Kalbadagrund (Финляндия) (23 км)
Погода в Хельсинки университете (Финляндия) (37 км)
Погода на Острове Хармая (Финляндия) (38 км)
Погода в Хельсинки Кайсаниеми (Финляндия) (38 км)
Погода в Хельсинки (Финляндия) (40 км)
Погода в Орренгрунде (Финляндия) (45 км)
Погода в Эспо Тапиола (Финляндия) (46 км)
Погода на Хельсинском маяке (Финляндия) (48 км)

Пояснения к столбцам:

Ветер - указаны скорость ветра в м/с - средняя за 10 мин, порывы в срок и между сроками (в фигурных скобках) и направление, откуда дует ветер: С - северный, СВ - северо-восточный, В - восточный, ЮВ - юго-восточный, Ю - южный, ЮЗ - юго-западный, З - западный, СЗ - северо-западный.
Видимость - горизонтальная дальность видимости в метрах или километрах. При видимости от 1 до 10 км при отсутствии осадков обычно наблюдается дымка, при ухудшении видимости до 1 км и менее - туман. В сухую погоду видимость может ухудшаться дымом, пылью или мглою.
Явления - указаны атмосферные явления, наблюдавшиеся в срок или в последний час перед сроком; фигурными скобками обозначены явления, наблюдавшиеся между сроками (за 1-3 часа до срока); квадратными скобками обозначены град или гололедные отложения с указанием их диаметра в мм.
Облачность - указаны через наклонную черту общая и нижняя облачность в баллах и высота нижней границы облаков в метрах; квадратными скобками обозначены формы облаков: Ci - перистые, Cs - перисто-слоистые, Cc - перисто-кучевые, Ac - высококучевые, As - высокослоистые, Sc - слоисто-кучевые, Ns - слоисто-дождевые, Cu - кучевые, Cb - кучево-дождевые. Подробнее классификацию облаков см. в Атласе облаков (PDF).
T - Температура воздуха - температура, измеренная на высоте 2 м над землей.
Td - Температура точки росы - температура, при понижении до которой содержащийся в воздухе водяной пар достигнет насыщения.
f - Относительная влажность воздуха - влажноcть воздуха, измеренная на высоте 2 м над землей.
Te - Эффективная температура - температура, которую ощущает одетый по сезону человек в тени. Характеристика душности погоды. При расчете учитывается влияние влажности воздуха и скорости ветра на теплоощущения человека.
Tes - Эффективная температура на солнце - температура, которую ощущает человек, с поправкой на солнечный нагрев. Характеристика знойности погоды. Зависит от высоты солнца над горизонтом, облачности и скорости ветра. Ночью, в пасмурную погоду, а также при ветре 12 м/с и более поправка равна нулю.
P - Атмосферное давление - приведенное к уровню моря атмосферное давление.
Po - Атмосферное давление - измеренное на уровне метеостанции атмосферное давление.
Tmin - Минимальная температура - минимум температуры воздуха на высоте 2 м над землей.
Tmax - Максимальная температура - максимум температуры воздуха на высоте 2 м над землей.
R - Количество осадков - Количество выпавших осадков за период времени, мм. При наведении курсора мыши на число - период времени, за который выпало указанное количество осадков.
R24 - Количество осадков - Количество выпавших осадков за 24 часа, мм.
S - Снежный покров - Высота снежного покрова, см. При наведении курсора мыши на число - состояние снежного покрова и степень покрытия местности в баллах.